Time,TemperatureF,DewpointF,PressureIn,WindDirection,WindDirectionDegrees,WindSpeedMPH,WindSpeedGustMPH,Humidity,HourlyPrecipIn,Conditions,Clouds,dailyrainin,SoftwareType,DateUTC
2013-05-11 00:02:00,49.0,46.0,29.95,NNW,343,3.0,7.0,91,0.00,,,0.00,,2013-05-11 05:02:00,
2013-05-11 00:12:00,49.0,46.0,29.95,NNW,343,3.0,7.0,91,0.00,,,0.00,,2013-05-11 05:12:00,
2013-05-11 00:21:00,49.0,46.0,29.95,NNE,19,2.0,5.0,91,0.00,,,0.00,,2013-05-11 05:21:00,
2013-05-11 00:32:00,49.0,46.0,29.95,NNE,25,3.0,6.0,91,0.00,,,0.00,,2013-05-11 05:32:00,
2013-05-11 00:42:00,49.0,46.0,29.95,NNE,25,3.0,6.0,91,0.00,,,0.00,,2013-05-11 05:42:00,
2013-05-11 00:52:00,49.0,46.0,29.95,NNE,15,3.0,6.0,91,0.00,,,0.00,,2013-05-11 05:52:00,
2013-05-11 01:02:00,49.0,46.0,29.95,North,10,1.0,5.0,91,0.00,,,0.00,,2013-05-11 06:02:00,
2013-05-11 01:12:00,49.0,46.0,29.95,North,10,1.0,5.0,91,0.00,,,0.00,,2013-05-11 06:12:00,
2013-05-11 01:21:00,49.0,46.0,29.95,North,11,0.0,3.0,91,0.00,,,0.00,,2013-05-11 06:21:00,
2013-05-11 01:32:00,49.0,47.0,29.95,NNW,347,0.0,3.0,92,0.00,,,0.00,,2013-05-11 06:32:00,
2013-05-11 01:42:00,49.0,47.0,29.96,North,11,1.0,4.0,92,0.00,,,0.00,,2013-05-11 06:42:00,
2013-05-11 01:52:00,49.0,47.0,29.96,North,11,1.0,4.0,92,0.00,,,0.00,,2013-05-11 06:52:00,
2013-05-11 02:02:00,49.0,47.0,29.96,NNW,344,0.0,3.0,92,0.00,,,0.00,,2013-05-11 07:02:00,
2013-05-11 02:11:00,49.0,47.0,29.96,NNW,344,0.0,3.0,92,0.00,,,0.00,,2013-05-11 07:11:00,
2013-05-11 02:21:00,49.0,47.0,29.95,NNW,344,0.0,2.0,92,0.00,,,0.00,,2013-05-11 07:21:00,
2013-05-11 02:32:00,49.0,47.0,29.95,NNW,344,1.0,3.0,93,0.00,,,0.00,,2013-05-11 07:32:00,
2013-05-11 02:42:00,49.0,47.0,29.95,NNW,344,1.0,3.0,93,0.00,,,0.00,,2013-05-11 07:42:00,
2013-05-11 02:52:00,49.0,47.0,29.95,NNW,344,1.0,3.0,92,0.00,,,0.00,,2013-05-11 07:52:00,
2013-05-11 03:01:00,49.0,47.0,29.96,NNW,328,2.0,3.0,92,0.00,,,0.00,,2013-05-11 08:01:00,
2013-05-11 03:12:00,49.0,47.0,29.96,NNW,328,2.0,3.0,92,0.00,,,0.00,,2013-05-11 08:12:00,
2013-05-11 03:21:00,49.0,46.0,29.95,West,281,2.0,5.0,91,0.00,,,0.00,,2013-05-11 08:21:00,
2013-05-11 03:32:00,49.0,46.0,29.95,West,280,0.0,2.0,89,0.00,,,0.00,,2013-05-11 08:32:00,
2013-05-11 03:42:00,49.0,46.0,29.94,SE,145,1.0,3.0,90,0.00,,,0.00,,2013-05-11 08:42:00,
2013-05-11 03:52:00,49.0,46.0,29.94,SE,145,1.0,3.0,90,0.00,,,0.00,,2013-05-11 08:52:00,
2013-05-11 04:01:00,49.0,46.0,29.95,SE,145,0.0,3.0,91,0.00,,,0.00,,2013-05-11 09:01:00,
2013-05-11 04:11:00,49.0,46.0,29.95,SE,145,0.0,3.0,91,0.00,,,0.00,,2013-05-11 09:11:00,
2013-05-11 04:21:00,49.0,46.0,29.94,SW,236,2.0,4.0,91,0.00,,,0.00,,2013-05-11 09:21:00,
2013-05-11 04:32:00,49.0,47.0,29.94,West,268,2.0,5.0,92,0.00,,,0.00,,2013-05-11 09:32:00,
2013-05-11 04:42:00,49.0,47.0,29.94,West,268,2.0,5.0,92,0.00,,,0.00,,2013-05-11 09:42:00,
2013-05-11 04:52:00,49.0,46.0,29.93,WSW,254,2.0,8.0,91,0.00,,,0.00,,2013-05-11 09:52:00,
2013-05-11 05:03:00,49.0,46.0,29.93,WSW,245,2.0,4.0,91,0.00,,,0.00,,2013-05-11 10:03:00,
2013-05-11 05:12:00,49.0,46.0,29.93,WSW,245,2.0,4.0,91,0.00,,,0.00,,2013-05-11 10:12:00,
2013-05-11 05:22:00,49.0,47.0,29.94,WSW,246,1.0,5.0,92,0.00,,,0.00,,2013-05-11 10:22:00,
2013-05-11 05:33:00,49.0,47.0,29.94,WSW,246,2.0,5.0,92,0.00,,,0.00,,2013-05-11 10:33:00,
2013-05-11 05:42:00,49.0,47.0,29.94,WSW,246,2.0,5.0,92,0.00,,,0.00,,2013-05-11 10:42:00,
2013-05-11 05:52:00,49.0,47.0,29.93,WSW,248,2.0,5.0,93,0.00,,,0.00,,2013-05-11 10:52:00,
2013-05-11 06:02:00,49.0,47.0,29.93,WSW,252,2.0,5.0,93,0.00,,,0.00,,2013-05-11 11:02:00,
2013-05-11 06:12:00,49.0,47.0,29.93,WSW,252,2.0,5.0,93,0.00,,,0.00,,2013-05-11 11:12:00,
2013-05-11 06:21:00,49.0,47.0,29.92,WSW,257,2.0,9.0,92,0.00,,,0.00,,2013-05-11 11:21:00,
2013-05-11 06:32:00,49.0,47.0,29.92,WSW,251,3.0,4.0,92,0.00,,,0.00,,2013-05-11 11:32:00,
2013-05-11 06:42:00,49.0,47.0,29.92,WSW,251,3.0,4.0,92,0.00,,,0.00,,2013-05-11 11:42:00,
2013-05-11 06:51:00,49.0,47.0,29.91,SW,236,1.0,5.0,92,0.00,,,0.00,,2013-05-11 11:51:00,
2013-05-11 07:01:00,49.0,47.0,29.91,West,264,4.0,6.0,93,0.00,,,0.00,,2013-05-11 12:01:00,
2013-05-11 07:11:00,49.0,47.0,29.91,West,264,4.0,6.0,93,0.00,,,0.00,,2013-05-11 12:11:00,
2013-05-11 07:22:00,50.0,48.0,29.91,West,269,4.0,7.0,92,0.00,,,0.00,,2013-05-11 12:22:00,
2013-05-11 07:32:00,50.0,47.0,29.91,West,277,5.0,10.0,91,0.00,,,0.00,,2013-05-11 12:32:00,
2013-05-11 07:42:00,50.0,47.0,29.91,West,277,5.0,10.0,91,0.00,,,0.00,,2013-05-11 12:42:00,
2013-05-11 07:51:00,50.0,48.0,29.91,WSW,240,6.0,12.0,92,0.00,,,0.00,,2013-05-11 12:51:00,
2013-05-11 08:01:00,50.0,48.0,29.90,WSW,249,5.0,12.0,92,0.00,,,0.00,,2013-05-11 13:01:00,
2013-05-11 08:11:00,50.0,48.0,29.90,WSW,249,5.0,12.0,92,0.00,,,0.00,,2013-05-11 13:11:00,
2013-05-11 08:21:00,51.0,49.0,29.91,WSW,242,5.0,10.0,92,0.00,,,0.00,,2013-05-11 13:21:00,
2013-05-11 08:32:00,52.0,49.0,29.90,SW,230,6.0,10.0,91,0.00,,,0.00,,2013-05-11 13:32:00,
2013-05-11 08:42:00,52.0,49.0,29.90,SW,230,6.0,10.0,91,0.00,,,0.00,,2013-05-11 13:42:00,
2013-05-11 08:52:00,53.0,50.0,29.89,SW,232,6.0,11.0,90,0.00,,,0.00,,2013-05-11 13:52:00,
2013-05-11 09:02:00,54.0,51.0,29.89,WSW,248,6.0,12.0,89,0.00,,,0.00,,2013-05-11 14:02:00,
2013-05-11 09:11:00,54.0,51.0,29.89,WSW,248,6.0,12.0,89,0.00,,,0.00,,2013-05-11 14:11:00,
2013-05-11 09:21:00,55.0,52.0,29.88,West,281,6.0,11.0,88,0.00,,,0.00,,2013-05-11 14:21:00,
2013-05-11 09:32:00,56.0,52.0,29.88,SW,227,6.0,12.0,86,0.00,,,0.00,,2013-05-11 14:32:00,
2013-05-11 09:42:00,56.0,52.0,29.88,SW,227,6.0,12.0,86,0.00,,,0.00,,2013-05-11 14:42:00,
2013-05-11 09:51:00,56.0,52.0,29.87,West,259,6.0,14.0,85,0.00,,,0.00,,2013-05-11 14:51:00,
2013-05-11 10:01:00,57.0,53.0,29.85,WSW,254,7.0,12.0,85,0.00,,,0.00,,2013-05-11 15:01:00,
2013-05-11 10:11:00,57.0,53.0,29.85,WSW,254,7.0,12.0,85,0.00,,,0.00,,2013-05-11 15:11:00,
2013-05-11 10:21:00,57.0,52.0,29.85,WSW,253,7.0,16.0,84,0.00,,,0.00,,2013-05-11 15:21:00,
2013-05-11 10:32:00,56.0,52.0,29.85,WSW,254,8.0,14.0,86,0.00,,,0.00,,2013-05-11 15:32:00,
2013-05-11 10:43:00,56.0,52.0,29.85,WSW,254,8.0,14.0,86,0.00,,,0.00,,2013-05-11 15:43:00,
2013-05-11 10:53:00,56.0,52.0,29.86,West,267,13.0,19.0,86,0.00,,,0.00,,2013-05-11 15:53:00,
2013-05-11 11:02:00,57.0,52.0,29.86,West,267,10.0,17.0,84,0.00,,,0.00,,2013-05-11 16:02:00,
2013-05-11 11:12:00,57.0,52.0,29.86,West,267,10.0,17.0,84,0.00,,,0.00,,2013-05-11 16:12:00,
2013-05-11 11:22:00,58.0,53.0,29.86,West,275,9.0,17.0,84,0.00,,,0.00,,2013-05-11 16:22:00,
2013-05-11 11:33:00,58.0,52.0,29.86,WNW,282,12.0,17.0,80,0.00,,,0.00,,2013-05-11 16:33:00,
2013-05-11 11:42:00,58.0,52.0,29.86,WNW,282,12.0,17.0,80,0.00,,,0.00,,2013-05-11 16:42:00,
2013-05-11 11:52:00,59.0,53.0,29.86,West,274,8.0,17.0,80,0.00,,,0.00,,2013-05-11 16:52:00,
2013-05-11 12:02:00,60.0,51.0,29.85,West,273,14.0,21.0,73,0.00,,,0.00,,2013-05-11 17:02:00,
2013-05-11 12:12:00,60.0,51.0,29.85,West,273,14.0,21.0,73,0.00,,,0.00,,2013-05-11 17:12:00,
2013-05-11 12:22:00,61.0,52.0,29.86,West,279,13.0,21.0,72,0.00,,,0.00,,2013-05-11 17:22:00,
2013-05-11 12:32:00,60.0,50.0,29.86,WNW,288,14.0,22.0,69,0.00,,,0.00,,2013-05-11 17:32:00,
2013-05-11 12:42:00,60.0,50.0,29.86,WNW,288,14.0,22.0,69,0.00,,,0.00,,2013-05-11 17:42:00,
2013-05-11 12:52:00,61.0,48.0,29.86,WNW,298,13.0,23.0,63,0.00,,,0.00,,2013-05-11 17:52:00,
2013-05-11 13:01:00,61.0,49.0,29.86,West,269,15.0,24.0,64,0.00,,,0.00,,2013-05-11 18:01:00,
2013-05-11 13:11:00,61.0,49.0,29.86,West,269,15.0,24.0,64,0.00,,,0.00,,2013-05-11 18:11:00,
2013-05-11 13:21:00,61.0,47.0,29.86,West,262,12.0,19.0,61,0.00,,,0.00,,2013-05-11 18:21:00,
2013-05-11 13:32:00,60.0,45.0,29.87,WNW,294,14.0,19.0,58,0.00,,,0.00,,2013-05-11 18:32:00,
2013-05-11 13:42:00,60.0,45.0,29.87,WNW,294,14.0,19.0,58,0.00,,,0.00,,2013-05-11 18:42:00,
2013-05-11 13:51:00,60.0,44.0,29.87,West,271,15.0,23.0,56,0.00,,,0.00,,2013-05-11 18:51:00,
2013-05-11 14:02:00,60.0,43.0,29.88,WNW,294,14.0,21.0,54,0.00,,,0.00,,2013-05-11 19:02:00,
2013-05-11 14:11:00,60.0,43.0,29.88,WNW,294,14.0,21.0,54,0.00,,,0.00,,2013-05-11 19:11:00,
2013-05-11 14:21:00,60.0,39.0,29.89,WNW,296,15.0,23.0,45,0.00,,,0.00,,2013-05-11 19:21:00,
2013-05-11 14:32:00,61.0,38.0,29.90,West,273,13.0,23.0,43,0.00,,,0.00,,2013-05-11 19:32:00,
2013-05-11 14:42:00,61.0,38.0,29.90,West,273,13.0,23.0,43,0.00,,,0.00,,2013-05-11 19:42:00,
2013-05-11 14:52:00,61.0,35.0,29.90,WNW,294,14.0,21.0,37,0.00,,,0.00,,2013-05-11 19:52:00,
2013-05-11 15:02:00,61.0,33.0,29.91,WSW,257,10.0,21.0,35,0.00,,,0.00,,2013-05-11 20:02:00,
2013-05-11 15:12:00,61.0,33.0,29.91,WSW,257,10.0,21.0,35,0.00,,,0.00,,2013-05-11 20:12:00,
2013-05-11 15:22:00,62.0,35.0,29.90,WNW,294,15.0,21.0,37,0.00,,,0.00,,2013-05-11 20:22:00,
2013-05-11 15:32:00,61.0,35.0,29.91,WNW,285,13.0,24.0,37,0.00,,,0.00,,2013-05-11 20:32:00,
2013-05-11 15:42:00,61.0,35.0,29.91,WNW,285,13.0,24.0,37,0.00,,,0.00,,2013-05-11 20:42:00,
2013-05-11 15:52:00,61.0,35.0,29.91,WNW,302,13.0,21.0,38,0.00,,,0.00,,2013-05-11 20:52:00,
2013-05-11 16:02:00,60.0,35.0,29.92,NW,306,12.0,22.0,39,0.00,,,0.00,,2013-05-11 21:02:00,
2013-05-11 16:11:00,60.0,35.0,29.92,NW,306,12.0,22.0,39,0.00,,,0.00,,2013-05-11 21:11:00,
2013-05-11 16:21:00,61.0,34.0,29.92,West,277,16.0,22.0,36,0.00,,,0.00,,2013-05-11 21:21:00,
2013-05-11 16:33:00,59.0,33.0,29.93,WNW,303,14.0,21.0,37,0.00,,,0.00,,2013-05-11 21:33:00,
2013-05-11 16:43:00,59.0,33.0,29.93,WNW,303,14.0,21.0,37,0.00,,,0.00,,2013-05-11 21:43:00,
2013-05-11 16:52:00,60.0,34.0,29.93,West,275,16.0,22.0,37,0.00,,,0.00,,2013-05-11 21:52:00,
2013-05-11 17:02:00,58.0,33.0,29.95,West,277,14.0,20.0,38,0.00,,,0.00,,2013-05-11 22:02:00,
2013-05-11 17:13:00,58.0,33.0,29.95,West,277,14.0,20.0,38,0.00,,,0.00,,2013-05-11 22:13:00,
2013-05-11 17:23:00,57.0,34.0,29.95,West,269,12.0,20.0,41,0.00,,,0.00,,2013-05-11 22:23:00,
2013-05-11 17:33:00,56.0,34.0,29.96,WNW,287,11.0,22.0,43,0.00,,,0.00,,2013-05-11 22:33:00,
2013-05-11 17:42:00,56.0,34.0,29.96,WNW,287,11.0,22.0,43,0.00,,,0.00,,2013-05-11 22:42:00,
2013-05-11 17:52:00,56.0,32.0,29.96,WNW,284,14.0,22.0,40,0.00,,,0.00,,2013-05-11 22:52:00,
2013-05-11 18:02:00,56.0,32.0,29.97,West,271,12.0,20.0,40,0.00,,,0.00,,2013-05-11 23:02:00,
2013-05-11 18:12:00,56.0,32.0,29.97,West,271,12.0,20.0,40,0.00,,,0.00,,2013-05-11 23:12:00,
2013-05-11 18:22:00,55.0,29.0,29.97,WNW,299,11.0,20.0,37,0.00,,,0.00,,2013-05-11 23:22:00,
2013-05-11 18:32:00,55.0,32.0,29.97,West,273,10.0,17.0,41,0.00,,,0.00,,2013-05-11 23:32:00,
2013-05-11 18:42:00,55.0,32.0,29.97,West,273,10.0,17.0,41,0.00,,,0.00,,2013-05-11 23:42:00,
2013-05-11 18:52:00,54.0,30.0,29.98,WNW,296,11.0,18.0,40,0.00,,,0.00,,2013-05-11 23:52:00,
2013-05-11 19:01:00,55.0,29.0,29.98,WNW,296,14.0,25.0,36,0.00,,,0.00,,2013-05-12 00:01:00,
2013-05-11 19:11:00,55.0,29.0,29.98,WNW,296,14.0,25.0,36,0.00,,,0.00,,2013-05-12 00:11:00,
2013-05-11 19:21:00,54.0,28.0,29.98,WNW,284,12.0,19.0,36,0.00,,,0.00,,2013-05-12 00:21:00,
2013-05-11 19:32:00,53.0,28.0,29.99,NW,312,14.0,19.0,38,0.00,,,0.00,,2013-05-12 00:32:00,
2013-05-11 19:42:00,53.0,28.0,29.99,NW,312,14.0,19.0,38,0.00,,,0.00,,2013-05-12 00:42:00,
2013-05-11 19:52:00,52.0,32.0,30.00,WNW,288,8.0,13.0,46,0.00,,,0.00,,2013-05-12 00:52:00,
2013-05-11 20:01:00,51.0,33.0,30.00,WNW,295,6.0,11.0,49,0.00,,,0.00,,2013-05-12 01:01:00,
2013-05-11 20:11:00,51.0,33.0,30.00,WNW,295,6.0,11.0,49,0.00,,,0.00,,2013-05-12 01:11:00,
2013-05-11 20:21:00,51.0,33.0,30.00,WNW,289,7.0,11.0,50,0.00,,,0.00,,2013-05-12 01:21:00,
2013-05-11 20:32:00,51.0,33.0,30.01,West,275,10.0,15.0,50,0.00,,,0.00,,2013-05-12 01:32:00,
2013-05-11 20:42:00,51.0,33.0,30.01,West,275,10.0,15.0,50,0.00,,,0.00,,2013-05-12 01:42:00,
2013-05-11 20:52:00,50.0,33.0,30.01,WNW,286,7.0,16.0,52,0.00,,,0.00,,2013-05-12 01:52:00,
2013-05-11 21:01:00,49.0,33.0,30.02,WNW,296,8.0,12.0,53,0.00,,,0.00,,2013-05-12 02:01:00,
2013-05-11 21:11:00,49.0,33.0,30.02,WNW,296,8.0,12.0,53,0.00,,,0.00,,2013-05-12 02:11:00,
2013-05-11 21:22:00,48.0,33.0,30.02,West,260,6.0,12.0,55,0.00,,,0.00,,2013-05-12 02:22:00,
2013-05-11 21:32:00,47.0,32.0,30.03,West,281,7.0,11.0,56,0.00,,,0.00,,2013-05-12 02:32:00,
2013-05-11 21:42:00,47.0,32.0,30.03,West,281,7.0,11.0,56,0.00,,,0.00,,2013-05-12 02:42:00,
2013-05-11 21:52:00,47.0,32.0,30.03,West,281,7.0,11.0,56,0.00,,,0.00,,2013-05-12 02:52:00,
2013-05-11 22:01:00,46.0,32.0,30.04,West,275,5.0,9.0,57,0.00,,,0.00,,2013-05-12 03:01:00,
2013-05-11 22:11:00,46.0,32.0,30.04,West,275,5.0,9.0,57,0.00,,,0.00,,2013-05-12 03:11:00,
2013-05-11 22:22:00,45.0,32.0,30.04,WNW,299,4.0,7.0,61,0.00,,,0.00,,2013-05-12 03:22:00,
2013-05-11 22:33:00,45.0,33.0,30.04,WNW,291,4.0,7.0,62,0.00,,,0.00,,2013-05-12 03:33:00,
2013-05-11 22:42:00,45.0,33.0,30.04,WNW,291,4.0,7.0,62,0.00,,,0.00,,2013-05-12 03:42:00,
2013-05-11 22:53:00,44.0,33.0,30.04,WNW,290,4.0,7.0,64,0.00,,,0.00,,2013-05-12 03:53:00,
2013-05-11 23:02:00,-999.0,-99.9,30.04,WNW,286,3.0,7.0,66,0.00,,,0.00,,2013-05-12 04:02:00,
2013-05-11 23:12:00,43.0,32.0,30.04,WNW,286,3.0,7.0,66,0.00,,,0.00,,2013-05-12 04:12:00,
2013-05-11 23:22:00,42.0,33.0,30.04,West,271,2.0,5.0,69,0.00,,,0.00,,2013-05-12 04:22:00,
2013-05-11 23:33:00,42.0,33.0,30.04,West,277,2.0,6.0,71,0.00,,,0.00,,2013-05-12 04:33:00,
2013-05-11 23:43:00,42.0,33.0,30.04,West,277,2.0,6.0,71,0.00,,,0.00,,2013-05-12 04:43:00,
2013-05-11 23:52:00,41.0,33.0,30.04,WNW,286,1.0,4.0,73,0.00,,,0.00,,2013-05-12 04:52:00,